Eagle, AK

8:55 PM AKST on December 09, 2019 (GMT -0900)
Eagle

Weather History for PAEG - November, 2019

Change the Weather History Date:

Tuesday, November 12, 2019

  Actual Average (PABN) Record (PABN)
Temperature  
Mean Temperature 14 °F -  
Max Temperature 17 °F 11 °F 32 °F (1997)
Min Temperature 12 °F 4 °F -13 °F (2006)
Degree Days  
Heating Degree Days 50    
Moisture  
Dew Point 6 °F    
Average Humidity 65    
Maximum Humidity 77    
Minimum Humidity 54    
Precipitation  
Precipitation 0.00 in - - ()
Sea Level Pressure  
Sea Level Pressure 30.00 in    
Wind  
Wind Speed 7 mph (West)    
Max Wind Speed 14 mph    
Max Gust Speed 22 mph    
Visibility 9 miles    
Events Snow    
Averages and records for this station are not official NWS values.
T = Trace of Precipitation, MM = Missing Value Source: NWS Daily Summary

Daily Weather History Graph

Daily Weather History Graph

Search for Another Location

Airport or City:

Astronomy

Nov. 12, 2019 Rise Set
Actual Time 8:48 AM AKST 3:27 PM AKST
Civil Twilight 7:48 AM AKST 4:28 PM AKST
Nautical Twilight 6:46 AM AKST 5:29 PM AKST
Astronomical Twilight 5:49 AM AKST 6:26 PM AKST
Moon 4:08 PM AKST (11/12) 8:32 AM AKST (11/12)
Length of Visible Light 8h 39m
Length of Day
6h 38m
Full, 100% of the Moon is Illuminated
Nov 12
Full
Nov 19
Last Quarter
Nov 26
New
Dec 3
First Quarter
Dec 11
Full

Hourly Weather History & Observations

Time (AKST) Temp. Windchill Dew Point Humidity Pressure Visibility Wind Dir Wind Speed Gust Speed Precip Events Conditions
12:53 AM 15.1 °F 2.5 °F 1.0 °F 54% 30.00 in 10.0 mi SE 10.4 mph 20.7 mph N/A   Clear
1:53 AM 16.0 °F 1.7 °F 1.9 °F 54% 29.98 in 10.0 mi ESE 13.8 mph 21.9 mph N/A   Overcast
2:53 AM 16.0 °F 1.7 °F 1.9 °F 54% 29.97 in 10.0 mi ESE 13.8 mph 21.9 mph N/A   Overcast
3:53 AM 16.0 °F 2.9 °F 3.0 °F 57% 29.96 in 10.0 mi ESE 11.5 mph 19.6 mph N/A   Overcast
4:53 AM 17.1 °F 5.8 °F 3.9 °F 56% 29.96 in 10.0 mi ESE 9.2 mph 17.3 mph N/A   Overcast
5:53 AM 16.0 °F - 5.0 °F 62% 29.97 in 10.0 mi Calm Calm - N/A   Overcast
6:53 AM 14.0 °F 6.5 °F 3.9 °F 64% 29.97 in 10.0 mi West 4.6 mph - N/A   Overcast
7:53 AM 15.1 °F 9.4 °F 5.0 °F 64% 29.99 in 10.0 mi West 3.5 mph - N/A   Overcast
8:53 AM 16.0 °F - 5.0 °F 62% 29.99 in 10.0 mi Calm Calm - N/A   Overcast
9:10 AM 16.0 °F 10.4 °F 6.1 °F 65% 29.93 in 10.0 mi NW 3.5 mph - N/A   Overcast
9:53 AM 16.0 °F - 6.1 °F 65% 29.99 in 10.0 mi Calm Calm - N/A   Overcast
10:53 AM 16.0 °F - 6.1 °F 65% 29.98 in 10.0 mi Calm Calm - N/A   Overcast
11:53 AM 16.0 °F 10.4 °F 6.1 °F 65% 29.99 in 10.0 mi NNE 3.5 mph - N/A   Overcast
12:53 PM 17.1 °F - 8.1 °F 68% 30.00 in 8.0 mi Calm Calm - N/A   Overcast
1:53 PM 17.1 °F - 9.0 °F 71% 30.00 in 3.0 mi Calm Calm - 0.00 in Snow Light Snow
2:53 PM 17.1 °F - 10.0 °F 74% 30.00 in 5.0 mi Calm Calm - 0.00 in Snow Light Snow
3:53 PM 16.0 °F - 10.0 °F 77% 30.00 in 5.0 mi Calm Calm - 0.00 in Snow Light Snow
5:53 PM 17.1 °F 10.0 °F 9.0 °F 71% 30.02 in 10.0 mi West 4.6 mph - 0.00 in   Overcast
6:53 PM 17.1 °F 7.6 °F 8.1 °F 68% 30.03 in 10.0 mi West 6.9 mph - N/A   Overcast
7:53 PM 16.0 °F 6.3 °F 8.1 °F 71% 30.04 in 10.0 mi West 6.9 mph - N/A   Overcast
8:53 PM 15.1 °F 4.2 °F 6.1 °F 68% 30.06 in 10.0 mi West 8.1 mph - N/A   Overcast
10:53 PM 12.9 °F 2.6 °F 3.9 °F 67% 30.08 in 10.0 mi West 6.9 mph - N/A   Overcast
11:53 PM 12.0 °F 1.5 °F 3.9 °F 70% 30.10 in 10.0 mi West 6.9 mph - N/A   Overcast